TOM877 GBYD-EGCC

Flight info

Callsign TOM877
Flight time 5h 52m
Altitude 34000
Route BJ UB600 ANITI DCT NEVDI/N0470F350 UR975 ULNOT/N0464F370 DCT MINBA DCT ZRT UR975 BIMOG/N0457F360 DCT BULIS/N0451F380 UM372 MAK UB11 MABAP UR722 SAK UG5 KORIS L27 VJF DCT KOPOM DCT BELEN DCT DIDIG UP87 TERPO UN867 VASUX DCT ELVOS
Aircraft B38M/M-SDE1FGHILORVWXY/HB1

Departure

Time 2026-04-20 22:09
Airport Banjul International Airport (GBYD)

Arrival

Time 2026-04-21 04:01
Airport Manchester Airport (EGCC)
Time Latitude Longitude Altitude Speed Heading
2026-04-20 21:31 13.34116 -16.65135 103 ft 0 kts 130°
2026-04-20 22:03 13.34115 -16.65133 103 ft 1 kts 130°
2026-04-20 22:03 13.34097 -16.65112 103 ft 6 kts 130°
2026-04-20 22:03 13.34071 -16.65087 103 ft 2 kts 160°
2026-04-20 22:03 13.34046 -16.65103 103 ft 7 kts 220°
2026-04-20 22:04 13.33983 -16.65159 103 ft 15 kts 221°
2026-04-20 22:04 13.33900 -16.65233 100 ft 15 kts 219°
2026-04-20 22:04 13.33816 -16.65264 100 ft 12 kts 142°
2026-04-20 22:04 13.33755 -16.65192 100 ft 17 kts 130°
2026-04-20 22:05 13.33650 -16.65067 100 ft 26 kts 130°
2026-04-20 22:05 13.33530 -16.64926 97 ft 25 kts 131°
2026-04-20 22:05 13.33413 -16.64787 97 ft 27 kts 130°
2026-04-20 22:05 13.33286 -16.64635 97 ft 27 kts 131°
2026-04-20 22:06 13.33169 -16.64494 97 ft 25 kts 130°
2026-04-20 22:06 13.33054 -16.64359 94 ft 24 kts 130°
2026-04-20 22:06 13.32944 -16.64226 92 ft 24 kts 130°
2026-04-20 22:06 13.32870 -16.64086 89 ft 22 kts 83°
2026-04-20 22:07 13.32871 -16.63975 87 ft 11 kts 101°
2026-04-20 22:07 13.32812 -16.63942 86 ft 9 kts 174°
2026-04-20 22:07 13.32756 -16.63949 86 ft 6 kts 205°
2026-04-20 22:07 13.32733 -16.63973 87 ft 2 kts 257°
2026-04-20 22:08 13.32737 -16.63980 87 ft 0 kts 312°
2026-04-20 22:08 13.32779 -16.64028 88 ft 35 kts 311°
2026-04-20 22:08 13.33091 -16.64400 95 ft 99 kts 310°
2026-04-20 22:09 13.33670 -16.65089 100 ft 150 kts 310°
2026-04-20 22:09 13.34403 -16.65982 315 ft 172 kts 308°
2026-04-20 22:09 13.35191 -16.66980 748 ft 190 kts 309°
2026-04-20 22:09 13.36081 -16.67995 1469 ft 190 kts 321°
2026-04-20 22:10 13.37152 -16.68609 2324 ft 175 kts 347°
2026-04-20 22:10 13.38255 -16.68986 3005 ft 169 kts 330°
2026-04-20 22:10 13.39271 -16.69706 3367 ft 181 kts 329°
2026-04-20 22:10 13.40342 -16.70359 3900 ft 182 kts 333°
2026-04-20 22:11 13.41476 -16.71011 4259 ft 194 kts 332°
2026-04-20 22:11 13.42703 -16.71714 4584 ft 209 kts 333°
2026-04-20 22:11 13.44009 -16.72461 4895 ft 223 kts 333°
2026-04-20 22:11 13.45428 -16.73271 5143 ft 242 kts 333°
2026-04-20 22:12 13.46948 -16.74138 5429 ft 257 kts 332°
2026-04-20 22:12 13.48603 -16.75083 5623 ft 279 kts 332°
2026-04-20 22:12 13.50312 -16.76059 6185 ft 286 kts 332°
2026-04-20 22:12 13.52064 -16.77060 6844 ft 288 kts 332°
2026-04-20 22:13 13.53815 -16.78062 7477 ft 291 kts 332°
2026-04-20 22:13 13.55609 -16.79087 8093 ft 294 kts 332°
2026-04-20 22:13 13.57385 -16.80102 8709 ft 297 kts 331°
2026-04-20 22:13 13.59197 -16.81138 9274 ft 301 kts 331°
2026-04-20 22:14 13.61059 -16.82203 9863 ft 304 kts 331°
2026-04-20 22:14 13.62890 -16.83251 10545 ft 304 kts 330°
2026-04-20 22:14 13.64760 -16.84321 11161 ft 307 kts 330°
2026-04-20 22:14 13.66606 -16.85377 11806 ft 308 kts 330°
2026-04-20 22:15 13.68506 -16.86465 12417 ft 311 kts 330°
2026-04-20 22:15 13.70388 -16.87542 13072 ft 312 kts 329°
2026-04-20 22:15 13.72282 -16.88626 13708 ft 314 kts 329°
2026-04-20 22:15 13.74183 -16.89715 14319 ft 316 kts 329°
2026-04-20 22:16 13.76118 -16.90824 14905 ft 319 kts 328°
2026-04-20 22:16 13.78061 -16.91936 15507 ft 322 kts 328°
2026-04-20 22:16 13.80048 -16.93076 16029 ft 327 kts 328°
2026-04-20 22:16 13.82081 -16.94244 16280 ft 341 kts 327°
2026-04-20 22:17 13.84189 -16.95456 16495 ft 355 kts 327°
2026-04-20 22:17 13.86398 -16.96722 16712 ft 369 kts 328°
2026-04-20 22:17 13.88682 -16.98032 16871 ft 383 kts 327°
2026-04-20 22:17 13.91041 -16.99385 17019 ft 396 kts 328°
2026-04-20 22:18 13.93518 -17.00806 17278 ft 406 kts 328°
2026-04-20 22:18 13.95984 -17.02218 17806 ft 407 kts 327°
2026-04-20 22:18 13.98461 -17.03636 18317 ft 408 kts 327°
2026-04-20 22:18 14.00951 -17.05064 18747 ft 411 kts 327°
2026-04-20 22:19 14.03482 -17.06517 19183 ft 414 kts 327°
2026-04-20 22:19 14.06023 -17.07975 19727 ft 414 kts 327°
2026-04-20 22:19 14.08540 -17.09418 20157 ft 416 kts 327°
2026-04-20 22:19 14.11059 -17.10864 20630 ft 417 kts 327°
2026-04-20 22:20 14.13628 -17.12340 21040 ft 419 kts 326°
2026-04-20 22:20 14.16169 -17.13801 21461 ft 421 kts 326°
2026-04-20 22:20 14.18726 -17.15272 21897 ft 422 kts 326°
2026-04-20 22:20 14.21296 -17.16750 22266 ft 424 kts 326°
2026-04-20 22:21 14.23892 -17.18243 22703 ft 425 kts 326°
2026-04-20 22:21 14.26471 -17.19728 23047 ft 427 kts 326°
2026-04-20 22:21 14.29064 -17.21220 23521 ft 425 kts 326°
2026-04-20 22:21 14.31654 -17.22713 23914 ft 425 kts 326°
2026-04-20 22:22 14.34236 -17.24201 24245 ft 427 kts 326°
2026-04-20 22:22 14.36810 -17.25686 24657 ft 427 kts 326°
2026-04-20 22:22 14.39409 -17.27183 25069 ft 426 kts 326°
2026-04-20 22:22 14.42014 -17.28684 25422 ft 426 kts 326°
2026-04-20 22:23 14.44576 -17.30160 25955 ft 422 kts 326°
2026-04-20 22:23 14.47140 -17.31636 26527 ft 417 kts 326°
2026-04-20 22:23 14.49652 -17.33085 27062 ft 412 kts 326°
2026-04-20 22:23 14.52142 -17.34521 27532 ft 409 kts 326°
2026-04-20 22:24 14.54608 -17.35946 28025 ft 404 kts 326°
2026-04-20 22:24 14.57059 -17.37363 28476 ft 401 kts 326°
2026-04-20 22:24 14.59478 -17.38760 28970 ft 397 kts 326°
2026-04-20 22:24 14.61878 -17.40146 29374 ft 396 kts 326°
2026-04-20 22:25 14.64321 -17.41487 29664 ft 399 kts 328°
2026-04-20 22:25 14.66912 -17.42590 30054 ft 404 kts 338°
2026-04-20 22:25 14.69704 -17.43171 30431 ft 411 kts 346°
2026-04-20 22:25 14.72549 -17.43427 30753 ft 415 kts 350°
2026-04-20 22:26 14.75469 -17.43357 31120 ft 424 kts 360°
2026-04-20 22:26 14.78409 -17.42679 31474 ft 434 kts
2026-04-20 22:26 14.81275 -17.41635 31690 ft 441 kts 14°
2026-04-20 22:27 14.86694 -17.38403 32307 ft 456 kts 27°
2026-04-20 22:27 14.89269 -17.36437 32582 ft 458 kts 29°
2026-04-20 22:27 14.94411 -17.32440 32629 ft 470 kts 29°
2026-04-20 22:28 14.99730 -17.28336 32569 ft 483 kts 28°
2026-04-20 22:28 15.02410 -17.26273 32855 ft 482 kts 29°
2026-04-20 22:28 15.05117 -17.24188 33125 ft 482 kts 28°
2026-04-20 22:29 15.07778 -17.22142 33358 ft 483 kts 28°
2026-04-20 22:29 15.10481 -17.20068 33660 ft 482 kts 28°
2026-04-20 22:29 15.13184 -17.17994 33854 ft 483 kts 28°
2026-04-20 22:29 15.15908 -17.15907 33880 ft 485 kts 28°
2026-04-20 22:30 15.21303 -17.11768 33885 ft 481 kts 28°
2026-04-20 22:30 15.26717 -17.07614 33886 ft 481 kts 28°
2026-04-20 22:31 15.32107 -17.03485 33887 ft 482 kts 28°
2026-04-20 22:31 15.37504 -16.99344 33885 ft 484 kts 28°
2026-04-20 22:32 15.42912 -16.95190 33883 ft 483 kts 28°
2026-04-20 22:32 15.48299 -16.91051 33883 ft 483 kts 27°
2026-04-20 22:33 15.53699 -16.86899 33878 ft 482 kts 28°
2026-04-20 22:33 15.59084 -16.82756 33882 ft 482 kts 28°
2026-04-20 22:34 15.64470 -16.78609 33876 ft 480 kts 27°
2026-04-20 22:34 15.69845 -16.74470 33875 ft 484 kts 27°
2026-04-20 22:35 15.75311 -16.70258 33879 ft 484 kts 28°
2026-04-20 22:35 15.80692 -16.66103 33881 ft 481 kts 27°
2026-04-20 22:36 15.86042 -16.61972 33884 ft 481 kts 27°
2026-04-20 22:36 15.91480 -16.57783 33881 ft 485 kts 27°
2026-04-20 22:37 15.96897 -16.53589 33883 ft 480 kts 27°
2026-04-20 22:37 16.02278 -16.49425 33879 ft 483 kts 27°
2026-04-20 22:38 16.07705 -16.45231 33874 ft 485 kts 27°
2026-04-20 22:38 16.13095 -16.41049 33873 ft 481 kts 27°
2026-04-20 22:39 16.18516 -16.36853 33872 ft 485 kts 27°
2026-04-20 22:39 16.23886 -16.32687 33872 ft 483 kts 27°
2026-04-20 22:40 16.29301 -16.28485 33874 ft 486 kts 27°
2026-04-20 22:40 16.34747 -16.24248 33873 ft 482 kts 27°
2026-04-20 22:41 16.40110 -16.20081 33876 ft 485 kts 27°
2026-04-20 22:41 16.45544 -16.15861 33880 ft 487 kts 27°
2026-04-20 22:42 16.50947 -16.11650 33874 ft 483 kts 27°
2026-04-20 22:42 16.56417 -16.07494 33878 ft 486 kts 26°
2026-04-20 22:43 16.61931 -16.03414 33875 ft 484 kts 25°
2026-04-20 22:43 16.67411 -15.99339 33879 ft 481 kts 26°
2026-04-20 22:44 16.72878 -15.95275 33876 ft 484 kts 25°
2026-04-20 22:44 16.78342 -15.91198 33872 ft 482 kts 25°
2026-04-20 22:45 16.83861 -15.87084 33875 ft 488 kts 25°
2026-04-20 22:45 16.89360 -15.82970 33875 ft 484 kts 25°
2026-04-20 22:46 16.94778 -15.78906 33881 ft 482 kts 25°
2026-04-20 22:46 17.00266 -15.74807 33878 ft 486 kts 25°
2026-04-20 22:47 17.05791 -15.70671 33877 ft 488 kts 25°
2026-04-20 22:47 17.11300 -15.66539 33874 ft 483 kts 24°
2026-04-20 22:48 17.16971 -15.62810 33872 ft 475 kts 19°
2026-04-20 22:48 17.22706 -15.59294 33872 ft 475 kts 19°
2026-04-20 22:49 17.28351 -15.55786 33872 ft 475 kts 19°
2026-04-20 22:49 17.34067 -15.52208 33868 ft 479 kts 20°
2026-04-20 22:50 17.39777 -15.48602 33868 ft 474 kts 19°
2026-04-20 22:50 17.45471 -15.45009 33862 ft 478 kts 19°
2026-04-20 22:51 17.51167 -15.41407 33858 ft 477 kts 19°
2026-04-20 22:51 17.56837 -15.37810 33867 ft 475 kts 19°
2026-04-20 22:52 17.62519 -15.34212 33866 ft 476 kts 20°
2026-04-20 22:52 17.68214 -15.30602 33866 ft 477 kts 20°
2026-04-20 22:53 17.73899 -15.26985 33869 ft 474 kts 19°
2026-04-20 22:53 17.79539 -15.23406 33867 ft 477 kts 19°
2026-04-20 22:54 17.85208 -15.19803 33865 ft 477 kts 19°
2026-04-20 22:54 17.90857 -15.16202 33866 ft 473 kts 19°
2026-04-20 22:55 17.96560 -15.12574 33866 ft 475 kts 19°
2026-04-20 22:55 18.02189 -15.08982 33866 ft 472 kts 19°
2026-04-20 22:56 18.07792 -15.05409 33868 ft 475 kts 18°
2026-04-20 22:56 18.13461 -15.01796 33865 ft 477 kts 19°
2026-04-20 22:57 18.19119 -14.98171 33866 ft 472 kts 18°
2026-04-20 22:57 18.24790 -14.94550 33865 ft 476 kts 19°
2026-04-20 22:58 18.30446 -14.90930 33859 ft 474 kts 18°
2026-04-20 22:58 18.36122 -14.87295 33853 ft 475 kts 19°
2026-04-20 22:59 18.41734 -14.83696 33852 ft 473 kts 19°
2026-04-20 22:59 18.47404 -14.80066 33844 ft 476 kts 18°
2026-04-20 23:00 18.53066 -14.76426 33844 ft 473 kts 18°
2026-04-20 23:00 18.58739 -14.72789 33845 ft 479 kts 18°
2026-04-20 23:01 18.64423 -14.69132 33841 ft 475 kts 18°
2026-04-20 23:01 18.70052 -14.65501 33847 ft 471 kts 18°
2026-04-20 23:02 18.75712 -14.61867 33843 ft 477 kts 18°
2026-04-20 23:02 18.81391 -14.58206 33842 ft 474 kts 18°
2026-04-20 23:03 18.87081 -14.54541 33839 ft 477 kts 18°
2026-04-20 23:03 18.92735 -14.50886 33838 ft 476 kts 18°
2026-04-20 23:04 18.98393 -14.47232 33840 ft 476 kts 18°
2026-04-20 23:04 19.04055 -14.43571 33846 ft 476 kts 18°
2026-04-20 23:05 19.09758 -14.39885 33849 ft 480 kts 18°
2026-04-20 23:05 19.15464 -14.36186 33848 ft 477 kts 18°
2026-04-20 23:06 19.21094 -14.32528 33859 ft 473 kts 18°
2026-04-20 23:06 19.26753 -14.28874 33858 ft 480 kts 18°
2026-04-20 23:07 19.32468 -14.25165 33861 ft 477 kts 19°
2026-04-20 23:07 19.38141 -14.21473 33865 ft 479 kts 18°
2026-04-20 23:08 19.43900 -14.17739 33871 ft 487 kts 18°
2026-04-20 23:08 19.49622 -14.14003 33864 ft 477 kts 18°
2026-04-20 23:09 19.55292 -14.10307 33868 ft 481 kts 18°
2026-04-20 23:09 19.61024 -14.06585 33863 ft 483 kts 18°
2026-04-20 23:10 19.66721 -14.02856 33866 ft 477 kts 18°
2026-04-20 23:10 19.72449 -13.99123 33867 ft 482 kts 18°
2026-04-20 23:11 19.78291 -13.95665 33870 ft 473 kts 12°
2026-04-20 23:11 19.84231 -13.92749 33862 ft 465 kts 11°
2026-04-20 23:12 19.90191 -13.89872 33866 ft 471 kts 11°
2026-04-20 23:12 19.96149 -13.86962 33866 ft 469 kts 11°
2026-04-20 23:13 20.02086 -13.84038 33865 ft 468 kts 11°
2026-04-20 23:13 20.08024 -13.81116 33858 ft 468 kts 11°
2026-04-20 23:14 20.13913 -13.78208 33869 ft 468 kts 12°
2026-04-20 23:14 20.19882 -13.75262 33871 ft 473 kts 12°
2026-04-20 23:15 20.25830 -13.72311 33874 ft 469 kts 12°
2026-04-20 23:15 20.31797 -13.69356 33868 ft 472 kts 12°
2026-04-20 23:16 20.37777 -13.66393 33877 ft 472 kts 13°
2026-04-20 23:16 20.43761 -13.63428 33869 ft 476 kts 13°
2026-04-20 23:17 20.49738 -13.60452 33871 ft 472 kts 13°
2026-04-20 23:17 20.55713 -13.57488 33887 ft 475 kts 13°
2026-04-20 23:18 20.61739 -13.54492 33901 ft 478 kts 13°
2026-04-20 23:18 20.67784 -13.51480 33886 ft 474 kts 13°
2026-04-20 23:19 20.73774 -13.48487 33895 ft 474 kts 14°
2026-04-20 23:19 20.79755 -13.45503 33904 ft 474 kts 14°
2026-04-20 23:20 20.85755 -13.42511 33908 ft 477 kts 14°
2026-04-20 23:20 20.91756 -13.39514 33909 ft 475 kts 14°
2026-04-20 23:21 20.97816 -13.36491 33912 ft 482 kts 14°
2026-04-20 23:21 21.03876 -13.33455 33905 ft 476 kts 15°
2026-04-20 23:22 21.09799 -13.30476 33917 ft 471 kts 15°
2026-04-20 23:22 21.15825 -13.27469 33916 ft 479 kts 15°
2026-04-20 23:23 21.21825 -13.24455 33915 ft 477 kts 15°
2026-04-20 23:23 21.27861 -13.21418 33920 ft 478 kts 15°
2026-04-20 23:24 21.33890 -13.18386 33917 ft 477 kts 15°
2026-04-20 23:24 21.39901 -13.15363 33922 ft 478 kts 16°
2026-04-20 23:25 21.45941 -13.12326 33920 ft 479 kts 16°
2026-04-20 23:25 21.51960 -13.09288 33906 ft 478 kts 17°
2026-04-20 23:26 21.57976 -13.06254 33899 ft 478 kts 17°
2026-04-20 23:26 21.64016 -13.03203 33897 ft 479 kts 17°
2026-04-20 23:27 21.70027 -13.00165 33901 ft 479 kts 17°
2026-04-20 23:27 21.76080 -12.97099 33907 ft 479 kts 17°
2026-04-20 23:28 21.82145 -12.94027 33900 ft 479 kts 17°
2026-04-20 23:28 21.88153 -12.90982 33909 ft 480 kts 17°
2026-04-20 23:29 21.94210 -12.87911 33898 ft 480 kts 18°
2026-04-20 23:29 22.00266 -12.84832 33900 ft 479 kts 18°
2026-04-20 23:30 22.06289 -12.81772 33898 ft 479 kts 18°
2026-04-20 23:30 22.12334 -12.78697 33895 ft 480 kts 18°
2026-04-20 23:31 22.18395 -12.75607 33904 ft 478 kts 18°
2026-04-20 23:31 22.24412 -12.72539 33902 ft 477 kts 18°
2026-04-20 23:32 22.30415 -12.69476 33895 ft 478 kts 19°
2026-04-20 23:32 22.36455 -12.66393 33892 ft 480 kts 19°
2026-04-20 23:33 22.42509 -12.63300 33902 ft 480 kts 19°
2026-04-20 23:33 22.48532 -12.60214 33894 ft 481 kts 19°
2026-04-20 23:34 22.54572 -12.57116 33901 ft 479 kts 19°
2026-04-20 23:34 22.60591 -12.54029 33907 ft 481 kts 19°
2026-04-20 23:35 22.69675 -12.49368 33918 ft 479 kts 19°
2026-04-20 23:36 22.75697 -12.46314 33922 ft 479 kts 17°
2026-04-20 23:36 22.81943 -12.43844 33911 ft 475 kts 12°
2026-04-20 23:37 22.88244 -12.41612 33938 ft 476 kts 13°
2026-04-20 23:37 22.94478 -12.39371 33913 ft 472 kts 13°
2026-04-20 23:38 23.00736 -12.37105 33914 ft 474 kts 13°
2026-04-20 23:38 23.07022 -12.34818 33904 ft 475 kts 14°
2026-04-20 23:39 23.13335 -12.32515 33906 ft 475 kts 14°
2026-04-20 23:39 23.19582 -12.30234 33896 ft 477 kts 13°
2026-04-20 23:40 23.25906 -12.27916 33889 ft 476 kts 14°
2026-04-20 23:40 23.32179 -12.25616 33886 ft 477 kts 14°
2026-04-20 23:41 23.38458 -12.23311 33884 ft 476 kts 14°
2026-04-20 23:41 23.44779 -12.20990 33889 ft 478 kts 14°
2026-04-20 23:42 23.51047 -12.18686 33884 ft 476 kts 14°
2026-04-20 23:42 23.57359 -12.16363 33887 ft 479 kts 14°
2026-04-20 23:43 23.63697 -12.14030 33879 ft 481 kts 14°
2026-04-20 23:43 23.69996 -12.11705 33884 ft 478 kts 14°
2026-04-20 23:44 23.76309 -12.09375 33885 ft 481 kts 14°
2026-04-20 23:44 23.82675 -12.07023 33886 ft 480 kts 14°
2026-04-20 23:45 23.89005 -12.04681 33885 ft 479 kts 14°
2026-04-20 23:45 23.95353 -12.02329 33887 ft 480 kts 14°
2026-04-20 23:46 24.01648 -11.99994 33888 ft 480 kts 14°
2026-04-20 23:46 24.07995 -11.97638 33887 ft 482 kts 14°
2026-04-20 23:47 24.14352 -11.95276 33887 ft 482 kts 14°
2026-04-20 23:47 24.20707 -11.92911 33887 ft 482 kts 14°
2026-04-20 23:48 24.27089 -11.90535 33889 ft 482 kts 14°
2026-04-20 23:48 24.33457 -11.88163 33893 ft 483 kts 14°
2026-04-20 23:49 24.39804 -11.85794 33897 ft 481 kts 14°
2026-04-20 23:49 24.46168 -11.83417 33894 ft 481 kts 14°
2026-04-20 23:50 24.52489 -11.81053 33891 ft 480 kts 14°
2026-04-20 23:50 24.58834 -11.78679 33891 ft 482 kts 14°
2026-04-20 23:51 24.65206 -11.76292 33888 ft 482 kts 14°
2026-04-20 23:51 24.71562 -11.73909 33886 ft 483 kts 14°
2026-04-20 23:52 24.77956 -11.71509 33880 ft 483 kts 14°
2026-04-20 23:52 24.84286 -11.69130 33883 ft 483 kts 14°
2026-04-20 23:53 24.90668 -11.66728 33877 ft 484 kts 14°
2026-04-20 23:53 24.97058 -11.64322 33877 ft 484 kts 14°
2026-04-20 23:54 25.03424 -11.61919 33877 ft 483 kts 14°
2026-04-20 23:54 25.09761 -11.59528 33883 ft 484 kts 14°
2026-04-20 23:55 25.16146 -11.57113 33889 ft 484 kts 15°
2026-04-20 23:55 25.22278 -11.53956 33895 ft 490 kts 28°
2026-04-20 23:56 25.27757 -11.49384 33900 ft 494 kts 38°
2026-04-20 23:56 25.32951 -11.44380 33898 ft 495 kts 38°
2026-04-20 23:57 25.38139 -11.39349 33898 ft 495 kts 38°
2026-04-20 23:57 25.43294 -11.34374 33896 ft 495 kts 39°
2026-04-20 23:58 25.48496 -11.29365 33897 ft 495 kts 38°
2026-04-20 23:58 25.53703 -11.24353 33896 ft 495 kts 39°
2026-04-20 23:59 25.58899 -11.19350 33895 ft 496 kts 39°
2026-04-20 23:59 25.64087 -11.14349 33894 ft 496 kts 38°
2026-04-21 00:00 25.69302 -11.09317 33897 ft 494 kts 38°
2026-04-21 00:00 25.74486 -11.04307 33896 ft 494 kts 39°
2026-04-21 00:01 25.79659 -10.99304 33899 ft 493 kts 38°
2026-04-21 00:01 25.84805 -10.94322 33911 ft 493 kts 38°
2026-04-21 00:02 25.89949 -10.89335 33918 ft 492 kts 39°
2026-04-21 00:02 25.95135 -10.84303 33921 ft 495 kts 38°
2026-04-21 00:03 26.00298 -10.79285 33920 ft 494 kts 39°
2026-04-21 00:03 26.05480 -10.74243 33921 ft 495 kts 39°
2026-04-21 00:04 26.10682 -10.69175 33917 ft 494 kts 39°
2026-04-21 00:04 26.15835 -10.64150 33917 ft 495 kts 39°
2026-04-21 00:05 26.21011 -10.59095 33912 ft 494 kts 39°
2026-04-21 00:05 26.26182 -10.54040 33913 ft 495 kts 39°
2026-04-21 00:06 26.31315 -10.49016 33905 ft 493 kts 39°
2026-04-21 00:06 26.36483 -10.43949 33896 ft 492 kts 39°
2026-04-21 00:07 26.41612 -10.38914 33883 ft 492 kts 39°
2026-04-21 00:07 26.46756 -10.33859 33885 ft 490 kts 39°
2026-04-21 00:08 26.51873 -10.28825 33890 ft 491 kts 39°
2026-04-21 00:08 26.57000 -10.23777 33890 ft 491 kts 39°
2026-04-21 00:09 26.62094 -10.18752 33889 ft 489 kts 39°
2026-04-21 00:09 26.67195 -10.13715 33889 ft 491 kts 40°
2026-04-21 00:10 26.72339 -10.08632 33890 ft 490 kts 39°
2026-04-21 00:10 26.77441 -10.03581 33892 ft 490 kts 39°
2026-04-21 00:11 26.82530 -9.98536 33892 ft 489 kts 39°
2026-04-21 00:11 26.87616 -9.93489 33897 ft 488 kts 39°
2026-04-21 00:12 26.92681 -9.88457 33900 ft 488 kts 39°
2026-04-21 00:12 26.97759 -9.83405 33905 ft 489 kts 39°
2026-04-21 00:13 27.02862 -9.78322 33909 ft 489 kts 39°
2026-04-21 00:13 27.07950 -9.73247 33915 ft 489 kts 40°
2026-04-21 00:14 27.13022 -9.68183 33908 ft 489 kts 40°
2026-04-21 00:14 27.18079 -9.63126 33905 ft 490 kts 40°
2026-04-21 00:15 27.23174 -9.58026 33900 ft 490 kts 40°
2026-04-21 00:15 27.28254 -9.52934 33894 ft 489 kts 39°
2026-04-21 00:16 27.33325 -9.47844 33896 ft 490 kts 40°
2026-04-21 00:16 27.38440 -9.42704 33895 ft 491 kts 39°
2026-04-21 00:17 27.43500 -9.37613 33900 ft 492 kts 40°
2026-04-21 00:17 27.48615 -9.32459 33897 ft 491 kts 40°
2026-04-21 00:18 27.53706 -9.27323 33905 ft 492 kts 40°
2026-04-21 00:18 27.58801 -9.22175 33902 ft 493 kts 40°
2026-04-21 00:19 27.63941 -9.17115 33907 ft 490 kts 36°
2026-04-21 00:19 27.69823 -9.13469 33914 ft 482 kts 13°
2026-04-21 00:20 27.76316 -9.11662 33902 ft 480 kts
2026-04-21 00:20 27.82839 -9.10038 33904 ft 480 kts
2026-04-21 00:21 27.89381 -9.08399 33903 ft 480 kts
2026-04-21 00:21 27.95889 -9.06755 33905 ft 480 kts
2026-04-21 00:22 28.02430 -9.05092 33911 ft 480 kts
2026-04-21 00:22 28.08982 -9.03424 33912 ft 482 kts
2026-04-21 00:22 28.12264 -9.02586 34228 ft 483 kts
2026-04-21 00:23 28.15517 -9.01754 34798 ft 478 kts
2026-04-21 00:23 28.18790 -9.00915 35344 ft 475 kts
2026-04-21 00:23 28.21995 -9.00096 35638 ft 476 kts
2026-04-21 00:23 28.25242 -8.99266 35887 ft 478 kts
2026-04-21 00:24 28.28508 -8.98432 35902 ft 481 kts
2026-04-21 00:24 28.34993 -8.96769 35901 ft 476 kts
2026-04-21 00:25 28.41476 -8.95103 35903 ft 475 kts
2026-04-21 00:25 28.47927 -8.93448 35902 ft 477 kts
2026-04-21 00:26 28.54404 -8.91782 35893 ft 476 kts
2026-04-21 00:26 28.60849 -8.90120 35900 ft 476 kts
2026-04-21 00:27 28.67313 -8.88454 35885 ft 477 kts
2026-04-21 00:27 28.73779 -8.86783 35891 ft 477 kts
2026-04-21 00:28 28.80259 -8.85110 35898 ft 478 kts
2026-04-21 00:28 28.86774 -8.83423 35898 ft 477 kts
2026-04-21 00:29 28.93238 -8.81745 35901 ft 478 kts
2026-04-21 00:29 28.99720 -8.80062 35905 ft 477 kts
2026-04-21 00:30 29.06222 -8.78370 35921 ft 478 kts
2026-04-21 00:30 29.12682 -8.76684 35935 ft 477 kts
2026-04-21 00:31 29.19195 -8.74983 35959 ft 478 kts
2026-04-21 00:31 29.25686 -8.73287 35987 ft 480 kts
2026-04-21 00:32 29.32174 -8.71590 35995 ft 479 kts
2026-04-21 00:32 29.38679 -8.69886 36006 ft 481 kts
2026-04-21 00:33 29.45219 -8.68169 36024 ft 481 kts
2026-04-21 00:33 29.51708 -8.66463 36029 ft 480 kts
2026-04-21 00:34 29.58216 -8.64748 36052 ft 480 kts
2026-04-21 00:34 29.64764 -8.63021 36069 ft 480 kts
2026-04-21 00:35 29.71273 -8.61307 36089 ft 482 kts
2026-04-21 00:35 29.77821 -8.59578 36103 ft 480 kts
2026-04-21 00:36 29.84346 -8.57851 36114 ft 482 kts
2026-04-21 00:36 29.90889 -8.56119 36113 ft 484 kts
2026-04-21 00:37 29.97479 -8.54370 36111 ft 483 kts
2026-04-21 00:37 30.04008 -8.52635 36118 ft 482 kts
2026-04-21 00:38 30.10580 -8.50893 36115 ft 483 kts
2026-04-21 00:38 30.17119 -8.49149 36119 ft 481 kts
2026-04-21 00:39 30.23620 -8.47412 36104 ft 481 kts
2026-04-21 00:39 30.30141 -8.45670 36112 ft 481 kts
2026-04-21 00:40 30.36671 -8.43925 36102 ft 481 kts
2026-04-21 00:40 30.43209 -8.42177 36093 ft 482 kts
2026-04-21 00:41 30.49723 -8.40431 36090 ft 483 kts
2026-04-21 00:41 30.56276 -8.38670 36101 ft 481 kts
2026-04-21 00:42 30.62794 -8.36921 36106 ft 481 kts
2026-04-21 00:42 30.69303 -8.35182 36107 ft 482 kts
2026-04-21 00:43 30.75861 -8.33426 36102 ft 481 kts
2026-04-21 00:43 30.82346 -8.31686 36138 ft 481 kts
2026-04-21 00:44 30.88899 -8.29927 36173 ft 481 kts
2026-04-21 00:44 30.95424 -8.28172 36219 ft 481 kts
2026-04-21 00:45 31.05250 -8.25525 36228 ft 482 kts
2026-04-21 00:45 31.11793 -8.23758 36209 ft 482 kts
2026-04-21 00:46 31.18311 -8.21997 36138 ft 482 kts
2026-04-21 00:46 31.24856 -8.20226 36105 ft 482 kts
2026-04-21 00:47 31.31421 -8.18446 36053 ft 483 kts
2026-04-21 00:47 31.37956 -8.16671 36005 ft 483 kts
2026-04-21 00:48 31.44523 -8.14886 35959 ft 484 kts
2026-04-21 00:48 31.51044 -8.13108 35939 ft 482 kts
2026-04-21 00:49 31.57624 -8.11401 35913 ft 482 kts
2026-04-21 00:49 31.64242 -8.10901 35908 ft 471 kts 349°
2026-04-21 00:50 31.70705 -8.11901 35895 ft 466 kts 345°
2026-04-21 00:50 31.77137 -8.13131 35890 ft 467 kts 345°
2026-04-21 00:51 31.83512 -8.14335 35876 ft 467 kts 345°
2026-04-21 00:51 31.89939 -8.15535 35882 ft 467 kts 345°
2026-04-21 00:52 31.96387 -8.16730 35869 ft 469 kts 345°
2026-04-21 00:52 32.02850 -8.17926 35862 ft 470 kts 345°
2026-04-21 00:53 32.09303 -8.19024 35856 ft 471 kts 348°
2026-04-21 00:53 32.15904 -8.19140 35844 ft 479 kts
2026-04-21 00:54 32.22574 -8.18173 35835 ft 484 kts
2026-04-21 00:54 32.29212 -8.17048 35828 ft 482 kts
2026-04-21 00:55 32.35860 -8.15941 35829 ft 483 kts
2026-04-21 00:55 32.42528 -8.14846 35829 ft 483 kts
2026-04-21 00:56 32.49175 -8.13760 35821 ft 484 kts
2026-04-21 00:56 32.55851 -8.12667 35814 ft 483 kts
2026-04-21 00:57 32.62498 -8.11581 35813 ft 485 kts
2026-04-21 00:57 32.69188 -8.10486 35813 ft 483 kts
2026-04-21 00:58 32.75862 -8.09392 35801 ft 485 kts
2026-04-21 00:58 32.82529 -8.08296 35804 ft 484 kts
2026-04-21 00:59 32.89201 -8.07141 35800 ft 486 kts
2026-04-21 00:59 32.95755 -8.04840 35801 ft 495 kts 20°
2026-04-21 01:00 33.01893 -8.01115 35806 ft 498 kts 26°
2026-04-21 01:00 33.07909 -7.97086 35800 ft 497 kts 26°
2026-04-21 01:01 33.13933 -7.93066 35804 ft 496 kts 26°
2026-04-21 01:01 33.19982 -7.89057 35803 ft 496 kts 26°
2026-04-21 01:02 33.25989 -7.85082 35796 ft 495 kts 26°
2026-04-21 01:02 33.32028 -7.81085 35793 ft 495 kts 26°
2026-04-21 01:03 33.38021 -7.77117 35792 ft 495 kts 26°
2026-04-21 01:03 33.44038 -7.73124 35789 ft 494 kts 26°
2026-04-21 01:04 33.50065 -7.69119 35794 ft 494 kts 26°
2026-04-21 01:04 33.56119 -7.65212 35788 ft 494 kts 24°
2026-04-21 01:05 33.62232 -7.61543 35784 ft 493 kts 24°
2026-04-21 01:05 33.68401 -7.57851 35775 ft 492 kts 24°
2026-04-21 01:06 33.74502 -7.54164 35765 ft 492 kts 24°
2026-04-21 01:06 33.80608 -7.50454 35760 ft 491 kts 24°
2026-04-21 01:07 33.86678 -7.46755 35760 ft 491 kts 24°
2026-04-21 01:07 33.92799 -7.43020 35757 ft 491 kts 24°
2026-04-21 01:08 33.98855 -7.39315 35755 ft 491 kts 24°
2026-04-21 01:08 34.04944 -7.35585 35753 ft 492 kts 24°
2026-04-21 01:09 34.11041 -7.31844 35748 ft 491 kts 24°
2026-04-21 01:09 34.17156 -7.28085 35747 ft 491 kts 25°
2026-04-21 01:10 34.23233 -7.24343 35749 ft 492 kts 25°
2026-04-21 01:10 34.29281 -7.20610 35751 ft 489 kts 25°
2026-04-21 01:11 34.35341 -7.16866 35754 ft 489 kts 25°
2026-04-21 01:11 34.41419 -7.13105 35755 ft 490 kts 25°
2026-04-21 01:12 34.47489 -7.09340 35760 ft 488 kts 25°
2026-04-21 01:12 34.53511 -7.05603 35766 ft 487 kts 25°
2026-04-21 01:13 34.59539 -7.01856 35757 ft 488 kts 25°
2026-04-21 01:13 34.65555 -6.98147 35760 ft 487 kts 25°
2026-04-21 01:14 34.71622 -6.94439 35753 ft 487 kts 25°
2026-04-21 01:14 34.77680 -6.90728 35761 ft 487 kts 25°
2026-04-21 01:15 34.83694 -6.87031 35767 ft 486 kts 25°
2026-04-21 01:15 34.89759 -6.83296 35766 ft 486 kts 25°
2026-04-21 01:16 34.95776 -6.79586 35774 ft 486 kts 25°
2026-04-21 01:16 35.01792 -6.75869 35765 ft 485 kts 25°
2026-04-21 01:17 35.07802 -6.72148 35767 ft 485 kts 25°
2026-04-21 01:17 35.13810 -6.68424 35772 ft 484 kts 25°
2026-04-21 01:18 35.19821 -6.64692 35777 ft 485 kts 25°
2026-04-21 01:18 35.25784 -6.60982 35776 ft 485 kts 25°
2026-04-21 01:19 35.31821 -6.57222 35776 ft 484 kts 25°
2026-04-21 01:19 35.37784 -6.53499 35783 ft 484 kts 25°
2026-04-21 01:20 35.43788 -6.49745 35778 ft 483 kts 25°
2026-04-21 01:20 35.49745 -6.45938 35782 ft 483 kts 26°
2026-04-21 01:21 35.55654 -6.42066 35795 ft 483 kts 26°
2026-04-21 01:21 35.61581 -6.38182 35788 ft 483 kts 26°
2026-04-21 01:22 35.67506 -6.34302 35803 ft 482 kts 27°
2026-04-21 01:22 35.73448 -6.30403 35801 ft 484 kts 27°
2026-04-21 01:23 35.79361 -6.26537 35805 ft 482 kts 27°
2026-04-21 01:23 35.85299 -6.22672 35807 ft 482 kts 26°
2026-04-21 01:24 35.91235 -6.18840 35816 ft 483 kts 26°
2026-04-21 01:24 35.97159 -6.15016 35811 ft 483 kts 26°
2026-04-21 01:25 36.03099 -6.11162 35817 ft 483 kts 26°
2026-04-21 01:25 36.09028 -6.07309 35816 ft 483 kts 26°
2026-04-21 01:26 36.14987 -6.03429 35815 ft 481 kts 26°
2026-04-21 01:26 36.20862 -5.99617 35805 ft 480 kts 25°
2026-04-21 01:27 36.27025 -5.96454 35801 ft 478 kts 16°
2026-04-21 01:27 36.33374 -5.93991 35803 ft 477 kts 15°
2026-04-21 01:28 36.39710 -5.91623 35820 ft 478 kts 15°
2026-04-21 01:28 36.46098 -5.89221 35816 ft 478 kts 15°
2026-04-21 01:29 36.52437 -5.86827 35818 ft 478 kts 15°
2026-04-21 01:29 36.58802 -5.84419 35821 ft 478 kts 15°
2026-04-21 01:30 36.65127 -5.82018 35826 ft 478 kts 15°
2026-04-21 01:30 36.71509 -5.79591 35817 ft 476 kts 15°
2026-04-21 01:31 36.77817 -5.77187 35831 ft 476 kts 15°
2026-04-21 01:31 36.84155 -5.74770 35845 ft 476 kts 15°
2026-04-21 01:32 36.90470 -5.72356 35833 ft 476 kts 15°
2026-04-21 01:32 36.96808 -5.69929 35858 ft 477 kts 15°
2026-04-21 01:33 37.03122 -5.67507 35855 ft 475 kts 15°
2026-04-21 01:33 37.09426 -5.65084 35853 ft 476 kts 15°
2026-04-21 01:34 37.15768 -5.62643 35856 ft 475 kts 15°
2026-04-21 01:34 37.22112 -5.60197 35855 ft 474 kts 15°
2026-04-21 01:35 37.28412 -5.57764 35863 ft 475 kts 15°
2026-04-21 01:35 37.34738 -5.55316 35858 ft 475 kts 15°
2026-04-21 01:36 37.37877 -5.54100 35672 ft 475 kts 15°
2026-04-21 01:36 37.41036 -5.52875 35977 ft 474 kts 15°
2026-04-21 01:36 37.44204 -5.51646 35761 ft 476 kts 15°
2026-04-21 01:36 37.47345 -5.50426 35846 ft 475 kts 15°
2026-04-21 01:37 37.53684 -5.47960 35832 ft 475 kts 15°
2026-04-21 01:37 37.59992 -5.45502 35786 ft 476 kts 15°
2026-04-21 01:38 37.66333 -5.43027 35865 ft 475 kts 15°
2026-04-21 01:38 37.72649 -5.40557 36027 ft 477 kts 15°
2026-04-21 01:39 37.75773 -5.39334 35730 ft 473 kts 15°
2026-04-21 01:39 37.78919 -5.38100 35848 ft 470 kts 15°
2026-04-21 01:39 37.85194 -5.35640 35874 ft 477 kts 15°
2026-04-21 01:40 37.91545 -5.33144 35877 ft 475 kts 16°
2026-04-21 01:40 37.97818 -5.30674 35882 ft 474 kts 16°
2026-04-21 01:41 38.04133 -5.28183 35880 ft 474 kts 16°
2026-04-21 01:41 38.10400 -5.25706 35881 ft 475 kts 15°
2026-04-21 01:42 38.16699 -5.23213 35890 ft 474 kts 15°
2026-04-21 01:42 38.23016 -5.20707 35896 ft 475 kts 15°
2026-04-21 01:43 38.29282 -5.18217 35905 ft 474 kts 16°
2026-04-21 01:43 38.35585 -5.15706 35982 ft 475 kts 15°
2026-04-21 01:44 38.41847 -5.13207 35907 ft 468 kts 16°
2026-04-21 01:44 38.48058 -5.10726 36042 ft 470 kts 16°
2026-04-21 01:45 38.51211 -5.09466 35921 ft 475 kts 16°
2026-04-21 01:45 38.54381 -5.08196 35716 ft 473 kts 16°
2026-04-21 01:45 38.57499 -5.06946 35961 ft 472 kts 16°
2026-04-21 01:45 38.60632 -5.05688 35908 ft 472 kts 15°
2026-04-21 01:46 38.66867 -5.03183 35902 ft 472 kts 16°
2026-04-21 01:46 38.69984 -5.01929 36023 ft 471 kts 15°
2026-04-21 01:46 38.73134 -5.00661 35916 ft 476 kts 16°
2026-04-21 01:47 38.79388 -4.98139 35785 ft 470 kts 16°
2026-04-21 01:47 38.85629 -4.95619 35898 ft 474 kts 16°
2026-04-21 01:48 38.91948 -4.93062 35901 ft 473 kts 16°
2026-04-21 01:48 38.95078 -4.91793 36055 ft 473 kts 16°
2026-04-21 01:48 38.98214 -4.90522 35917 ft 471 kts 16°
2026-04-21 01:49 39.01289 -4.89273 35707 ft 468 kts 16°
2026-04-21 01:49 39.04385 -4.88014 35852 ft 467 kts 16°
2026-04-21 01:49 39.10635 -4.85472 35908 ft 475 kts 15°
2026-04-21 01:50 39.16893 -4.82919 35912 ft 472 kts 16°
2026-04-21 01:50 39.23149 -4.80363 35911 ft 472 kts 16°
2026-04-21 01:51 39.29407 -4.77800 35912 ft 472 kts 16°
2026-04-21 01:51 39.35690 -4.75222 36014 ft 473 kts 16°
2026-04-21 01:52 39.38799 -4.73945 35862 ft 467 kts 16°
2026-04-21 01:52 39.45007 -4.71390 35913 ft 472 kts 15°
2026-04-21 01:53 39.51242 -4.68822 35917 ft 472 kts 15°
2026-04-21 01:53 39.57507 -4.66234 35918 ft 471 kts 15°
2026-04-21 01:54 39.63720 -4.63664 35917 ft 471 kts 15°
2026-04-21 01:54 39.69958 -4.61079 35917 ft 472 kts 15°
2026-04-21 01:55 39.76216 -4.58480 35919 ft 471 kts 16°
2026-04-21 01:55 39.82441 -4.55890 35916 ft 470 kts 15°
2026-04-21 01:56 39.88667 -4.53294 35908 ft 470 kts 15°
2026-04-21 01:56 39.94911 -4.50687 35901 ft 471 kts 15°
2026-04-21 01:57 40.01125 -4.48087 35901 ft 471 kts 15°
2026-04-21 01:57 40.07359 -4.45472 35908 ft 470 kts 15°
2026-04-21 01:58 40.13595 -4.42854 35914 ft 470 kts 15°
2026-04-21 01:58 40.19807 -4.40239 35919 ft 470 kts 15°
2026-04-21 01:59 40.26059 -4.37602 35928 ft 469 kts 15°
2026-04-21 01:59 40.32233 -4.34994 35935 ft 470 kts 16°
2026-04-21 02:00 40.38462 -4.32357 35946 ft 469 kts 16°
2026-04-21 02:00 40.44635 -4.29739 35960 ft 469 kts 16°
2026-04-21 02:01 40.50849 -4.27099 35972 ft 469 kts 16°
2026-04-21 02:01 40.57064 -4.24454 35980 ft 469 kts 16°
2026-04-21 02:02 40.63263 -4.21809 35982 ft 469 kts 16°
2026-04-21 02:02 40.69467 -4.19157 35991 ft 468 kts 16°
2026-04-21 02:03 40.75641 -4.16513 36000 ft 468 kts 16°
2026-04-21 02:03 40.81807 -4.13868 36005 ft 469 kts 16°
2026-04-21 02:04 40.88016 -4.11198 36003 ft 468 kts 16°
2026-04-21 02:04 40.94176 -4.08544 36005 ft 467 kts 16°
2026-04-21 02:05 41.00342 -4.05882 35996 ft 466 kts 16°
2026-04-21 02:05 41.06493 -4.03222 35999 ft 468 kts 16°
2026-04-21 02:06 41.12678 -4.00542 35993 ft 466 kts 16°
2026-04-21 02:06 41.18810 -3.97880 35989 ft 468 kts 16°
2026-04-21 02:07 41.24994 -3.95190 35986 ft 468 kts 16°
2026-04-21 02:07 41.31160 -3.92502 35986 ft 467 kts 16°
2026-04-21 02:08 41.37348 -3.89798 35989 ft 467 kts 16°
2026-04-21 02:08 41.43486 -3.87111 35992 ft 466 kts 16°
2026-04-21 02:09 41.49630 -3.84418 35991 ft 467 kts 16°
2026-04-21 02:09 41.55805 -3.81705 35993 ft 465 kts 16°
2026-04-21 02:10 41.61953 -3.78997 35988 ft 465 kts 16°
2026-04-21 02:10 41.68061 -3.76303 35983 ft 466 kts 16°
2026-04-21 02:11 41.74233 -3.73574 35980 ft 466 kts 15°
2026-04-21 02:11 41.80391 -3.70847 35977 ft 466 kts 15°
2026-04-21 02:12 41.86496 -3.68138 35983 ft 465 kts 15°
2026-04-21 02:12 41.92642 -3.65405 35978 ft 465 kts 15°
2026-04-21 02:13 41.98756 -3.62681 35981 ft 464 kts 15°
2026-04-21 02:13 42.04889 -3.59943 35979 ft 465 kts 15°
2026-04-21 02:14 42.11026 -3.57197 35985 ft 464 kts 15°
2026-04-21 02:14 42.17153 -3.54450 35990 ft 465 kts 15°
2026-04-21 02:15 42.23299 -3.51689 35982 ft 464 kts 15°
2026-04-21 02:15 42.29417 -3.48935 35975 ft 465 kts 15°
2026-04-21 02:16 42.35527 -3.46178 35975 ft 465 kts 15°
2026-04-21 02:16 42.41647 -3.43412 35978 ft 464 kts 15°
2026-04-21 02:17 42.47769 -3.40640 35973 ft 465 kts 15°
2026-04-21 02:17 42.53859 -3.37876 35968 ft 464 kts 15°
2026-04-21 02:18 42.59981 -3.35091 35965 ft 464 kts 15°
2026-04-21 02:18 42.66095 -3.32305 35960 ft 465 kts 15°
2026-04-21 02:19 42.72225 -3.29505 35952 ft 464 kts 15°
2026-04-21 02:19 42.78313 -3.26718 35953 ft 464 kts 15°
2026-04-21 02:20 42.84426 -3.23914 35945 ft 464 kts 15°
2026-04-21 02:20 42.90539 -3.21106 35939 ft 464 kts 15°
2026-04-21 02:21 42.96612 -3.18309 35928 ft 464 kts 15°
2026-04-21 02:21 43.02713 -3.15494 35920 ft 464 kts 15°
2026-04-21 02:22 43.08818 -3.12671 35914 ft 463 kts 15°
2026-04-21 02:22 43.14902 -3.09851 35910 ft 462 kts 15°
2026-04-21 02:23 43.20964 -3.07035 35913 ft 462 kts 15°
2026-04-21 02:23 43.27049 -3.04204 35917 ft 461 kts 15°
2026-04-21 02:24 43.33102 -3.01381 35918 ft 461 kts 15°
2026-04-21 02:24 43.39177 -2.98542 35916 ft 460 kts 15°
2026-04-21 02:25 43.45233 -2.95706 35910 ft 460 kts 15°
2026-04-21 02:25 43.51263 -2.92876 35906 ft 460 kts 15°
2026-04-21 02:26 43.57284 -2.90044 35902 ft 459 kts 15°
2026-04-21 02:26 43.63331 -2.87195 35896 ft 458 kts 15°
2026-04-21 02:27 43.69327 -2.84363 35891 ft 458 kts 15°
2026-04-21 02:27 43.75354 -2.81511 35894 ft 459 kts 15°
2026-04-21 02:28 43.81358 -2.78663 35889 ft 457 kts 15°
2026-04-21 02:28 43.87357 -2.75812 35886 ft 456 kts 14°
2026-04-21 02:29 43.93428 -2.73585 35886 ft 452 kts
2026-04-21 02:29 43.99603 -2.72100 35888 ft 451 kts
2026-04-21 02:30 44.05784 -2.70716 35888 ft 449 kts
2026-04-21 02:30 44.11946 -2.69343 35890 ft 449 kts
2026-04-21 02:31 44.18092 -2.67975 35898 ft 449 kts
2026-04-21 02:31 44.24239 -2.66605 35898 ft 448 kts
2026-04-21 02:32 44.30420 -2.65226 35893 ft 448 kts
2026-04-21 02:32 44.36550 -2.63857 35907 ft 447 kts
2026-04-21 02:33 44.42664 -2.62488 35903 ft 447 kts
2026-04-21 02:33 44.48788 -2.61115 35907 ft 446 kts
2026-04-21 02:34 44.54921 -2.59740 35912 ft 446 kts
2026-04-21 02:34 44.61015 -2.58370 35917 ft 446 kts
2026-04-21 02:35 44.67146 -2.56986 35914 ft 446 kts
2026-04-21 02:35 44.73231 -2.55610 35918 ft 445 kts
2026-04-21 02:36 44.79351 -2.54223 35929 ft 444 kts
2026-04-21 02:36 44.85417 -2.52842 35923 ft 443 kts
2026-04-21 02:37 44.91485 -2.51460 35926 ft 444 kts
2026-04-21 02:37 44.97557 -2.50072 35932 ft 443 kts
2026-04-21 02:38 45.03641 -2.48680 35927 ft 444 kts
2026-04-21 02:38 45.09701 -2.47290 35932 ft 442 kts
2026-04-21 02:39 45.15787 -2.45893 35929 ft 443 kts
2026-04-21 02:39 45.21854 -2.44498 35936 ft 443 kts
2026-04-21 02:40 45.27940 -2.43094 35937 ft 443 kts
2026-04-21 02:40 45.33986 -2.41696 35942 ft 444 kts
2026-04-21 02:41 45.40094 -2.40281 35939 ft 444 kts
2026-04-21 02:41 45.46156 -2.38873 35949 ft 443 kts
2026-04-21 02:42 45.52229 -2.37461 35948 ft 444 kts
2026-04-21 02:42 45.58320 -2.36042 35952 ft 444 kts
2026-04-21 02:43 45.64414 -2.34616 35948 ft 444 kts
2026-04-21 02:43 45.70495 -2.33191 35956 ft 444 kts
2026-04-21 02:44 45.76585 -2.31762 35957 ft 444 kts
2026-04-21 02:44 45.82677 -2.30331 35964 ft 446 kts
2026-04-21 02:45 45.88747 -2.28901 35967 ft 446 kts
2026-04-21 02:45 45.94849 -2.27459 35972 ft 445 kts
2026-04-21 02:46 46.00964 -2.26013 35967 ft 445 kts
2026-04-21 02:46 46.07043 -2.24566 35971 ft 445 kts
2026-04-21 02:47 46.13148 -2.23082 35975 ft 444 kts
2026-04-21 02:47 46.19231 -2.21593 35977 ft 445 kts
2026-04-21 02:48 46.25311 -2.20105 35988 ft 444 kts
2026-04-21 02:48 46.31382 -2.18618 35996 ft 444 kts
2026-04-21 02:49 46.37455 -2.17127 35996 ft 445 kts
2026-04-21 02:49 46.43546 -2.15627 35998 ft 444 kts
2026-04-21 02:50 46.49650 -2.14121 36007 ft 444 kts
2026-04-21 02:50 46.55704 -2.12625 36008 ft 444 kts
2026-04-21 02:51 46.61765 -2.11123 36017 ft 443 kts
2026-04-21 02:51 46.67837 -2.09617 36016 ft 443 kts
2026-04-21 02:52 46.73887 -2.08112 36027 ft 442 kts
2026-04-21 02:52 46.79963 -2.06599 36035 ft 444 kts
2026-04-21 02:53 46.86034 -2.05082 36034 ft 444 kts
2026-04-21 02:53 46.92105 -2.03557 36038 ft 442 kts
2026-04-21 02:54 46.98120 -2.02046 36045 ft 442 kts
2026-04-21 02:54 47.04178 -2.00528 36052 ft 441 kts
2026-04-21 02:55 47.10204 -1.99039 36062 ft 442 kts
2026-04-21 02:55 47.16271 -1.97540 36061 ft 444 kts
2026-04-21 02:56 47.22358 -1.96026 36065 ft 442 kts
2026-04-21 02:56 47.31397 -1.93667 36080 ft 443 kts
2026-04-21 02:57 47.37303 -1.90991 36081 ft 450 kts 18°
2026-04-21 02:57 47.43006 -1.87098 36083 ft 452 kts 21°
2026-04-21 02:58 47.48610 -1.83063 36078 ft 451 kts 21°
2026-04-21 02:58 47.54225 -1.79008 36079 ft 450 kts 21°
2026-04-21 02:59 47.59874 -1.74924 36090 ft 452 kts 21°
2026-04-21 02:59 47.65479 -1.70857 36092 ft 451 kts 21°
2026-04-21 03:00 47.71107 -1.66766 36095 ft 450 kts 21°
2026-04-21 03:00 47.76736 -1.62666 36102 ft 452 kts 21°
2026-04-21 03:01 47.82367 -1.58554 36111 ft 451 kts 21°
2026-04-21 03:01 47.87957 -1.54461 36111 ft 450 kts 21°
2026-04-21 03:02 47.93565 -1.50346 36104 ft 451 kts 21°
2026-04-21 03:02 47.99199 -1.46319 36127 ft 448 kts 17°
2026-04-21 03:03 48.05102 -1.44032 36124 ft 435 kts 358°
2026-04-21 03:03 48.11113 -1.44149 36120 ft 431 kts 352°
2026-04-21 03:04 48.17067 -1.44588 36139 ft 430 kts 352°
2026-04-21 03:04 48.23064 -1.45031 36133 ft 431 kts 352°
2026-04-21 03:05 48.29013 -1.45463 36136 ft 430 kts 352°
2026-04-21 03:05 48.35006 -1.45896 36142 ft 429 kts 352°
2026-04-21 03:06 48.40939 -1.46327 36134 ft 431 kts 352°
2026-04-21 03:06 48.46934 -1.46762 36133 ft 429 kts 352°
2026-04-21 03:07 48.52867 -1.47193 36140 ft 429 kts 352°
2026-04-21 03:07 48.58819 -1.47629 36133 ft 430 kts 352°
2026-04-21 03:08 48.64792 -1.48064 36132 ft 428 kts 352°
2026-04-21 03:08 48.70686 -1.48494 36131 ft 427 kts 352°
2026-04-21 03:09 48.76640 -1.48933 36136 ft 429 kts 352°
2026-04-21 03:09 48.82555 -1.49369 36138 ft 427 kts 352°
2026-04-21 03:10 48.88508 -1.49800 36138 ft 428 kts 353°
2026-04-21 03:10 48.94464 -1.49476 36146 ft 433 kts 359°
2026-04-21 03:11 49.00444 -1.48735 36152 ft 431 kts 359°
2026-04-21 03:11 49.06420 -1.48000 36156 ft 431 kts 359°
2026-04-21 03:12 49.12391 -1.47280 36161 ft 432 kts 359°
2026-04-21 03:12 49.18360 -1.46566 36154 ft 431 kts 359°
2026-04-21 03:13 49.24347 -1.45850 36167 ft 433 kts 359°
2026-04-21 03:13 49.30336 -1.45134 36175 ft 432 kts 359°
2026-04-21 03:14 49.36282 -1.44420 36176 ft 432 kts 359°
2026-04-21 03:14 49.42267 -1.43702 36194 ft 431 kts 359°
2026-04-21 03:15 49.48220 -1.42986 36189 ft 431 kts 359°
2026-04-21 03:15 49.54203 -1.42265 36195 ft 432 kts 359°
2026-04-21 03:16 49.60173 -1.41552 36195 ft 432 kts 358°
2026-04-21 03:16 49.66138 -1.41006 36197 ft 433 kts 357°
2026-04-21 03:17 49.72143 -1.40500 36195 ft 430 kts 357°
2026-04-21 03:17 49.78123 -1.39981 36200 ft 432 kts 358°
2026-04-21 03:18 49.84066 -1.39459 36197 ft 431 kts 358°
2026-04-21 03:18 49.90050 -1.38932 36208 ft 432 kts 358°
2026-04-21 03:19 49.96055 -1.38398 36202 ft 432 kts 357°
2026-04-21 03:19 50.02043 -1.37631 36195 ft 437 kts
2026-04-21 03:20 50.08002 -1.36165 36216 ft 437 kts
2026-04-21 03:20 50.13988 -1.34629 36222 ft 436 kts
2026-04-21 03:21 50.19994 -1.33109 36206 ft 436 kts
2026-04-21 03:21 50.25940 -1.31611 36230 ft 437 kts
2026-04-21 03:22 50.31935 -1.30102 36219 ft 437 kts
2026-04-21 03:22 50.37909 -1.28596 36202 ft 436 kts
2026-04-21 03:23 50.43881 -1.27092 36223 ft 438 kts
2026-04-21 03:23 50.49894 -1.25855 36247 ft 431 kts 358°
2026-04-21 03:24 50.55855 -1.25709 36260 ft 430 kts 354°
2026-04-21 03:24 50.61830 -1.25789 36244 ft 429 kts 354°
2026-04-21 03:25 50.67776 -1.25897 36252 ft 429 kts 354°
2026-04-21 03:25 50.73742 -1.26019 36261 ft 430 kts 354°
2026-04-21 03:26 50.79699 -1.26149 36244 ft 429 kts 354°
2026-04-21 03:26 50.85618 -1.26281 36259 ft 429 kts 354°
2026-04-21 03:27 50.91616 -1.26416 36246 ft 428 kts 354°
2026-04-21 03:27 50.97547 -1.26551 36248 ft 429 kts 354°
2026-04-21 03:28 51.03513 -1.26688 36248 ft 428 kts 354°
2026-04-21 03:28 51.09443 -1.26826 36250 ft 429 kts 354°
2026-04-21 03:29 51.15391 -1.26966 36295 ft 431 kts 354°
2026-04-21 03:29 51.21356 -1.27105 36242 ft 428 kts 354°
2026-04-21 03:30 51.27323 -1.27246 36275 ft 431 kts 354°
2026-04-21 03:30 51.33295 -1.27385 36279 ft 431 kts 354°
2026-04-21 03:31 51.39304 -1.27525 36263 ft 431 kts 354°
2026-04-21 03:31 51.45261 -1.27662 36282 ft 432 kts 355°
2026-04-21 03:32 51.48258 -1.27733 36508 ft 433 kts 355°
2026-04-21 03:32 51.51295 -1.27806 36335 ft 434 kts 355°
2026-04-21 03:32 51.57252 -1.27944 36298 ft 427 kts 355°
2026-04-21 03:33 51.63175 -1.28089 36299 ft 429 kts 355°
2026-04-21 03:33 51.69130 -1.28234 36287 ft 432 kts 355°
2026-04-21 03:34 51.75111 -1.28371 36289 ft 430 kts 355°
2026-04-21 03:34 51.81095 -1.28516 36300 ft 433 kts 355°
2026-04-21 03:35 51.87090 -1.28661 36295 ft 432 kts 355°
2026-04-21 03:35 51.93078 -1.28804 36299 ft 432 kts 355°
2026-04-21 03:36 51.99091 -1.28950 36295 ft 434 kts 356°
2026-04-21 03:36 52.05100 -1.29096 36298 ft 434 kts 355°
2026-04-21 03:37 52.11151 -1.29246 36215 ft 436 kts 355°
2026-04-21 03:37 52.14163 -1.29320 35775 ft 439 kts 356°
2026-04-21 03:37 52.17231 -1.29394 35173 ft 438 kts 355°
2026-04-21 03:38 52.20240 -1.29466 34534 ft 438 kts 355°
2026-04-21 03:38 52.23247 -1.29539 33900 ft 437 kts 355°
2026-04-21 03:38 52.26274 -1.29612 33297 ft 436 kts 355°
2026-04-21 03:38 52.29321 -1.29686 32600 ft 434 kts 355°
2026-04-21 03:39 52.32317 -1.29758 31910 ft 432 kts 355°
2026-04-21 03:39 52.35302 -1.29831 31214 ft 430 kts 355°
2026-04-21 03:39 52.38255 -1.29902 30511 ft 428 kts 355°
2026-04-21 03:39 52.41217 -1.29975 29770 ft 425 kts 355°
2026-04-21 03:40 52.44146 -1.30047 29037 ft 422 kts 356°
2026-04-21 03:40 52.47052 -1.30118 28307 ft 420 kts 356°
2026-04-21 03:40 52.49956 -1.30191 27574 ft 417 kts 356°
2026-04-21 03:40 52.52803 -1.30261 26844 ft 415 kts 357°
2026-04-21 03:41 52.55694 -1.30333 26101 ft 412 kts 357°
2026-04-21 03:41 52.58521 -1.30403 25365 ft 409 kts 358°
2026-04-21 03:41 52.61346 -1.30474 24623 ft 406 kts 358°
2026-04-21 03:41 52.64134 -1.30544 23875 ft 403 kts 359°
2026-04-21 03:42 52.66924 -1.30810 23116 ft 401 kts 354°
2026-04-21 03:42 52.69640 -1.31624 22337 ft 399 kts 345°
2026-04-21 03:42 52.72218 -1.33216 21558 ft 398 kts 335°
2026-04-21 03:42 52.74636 -1.35377 20782 ft 396 kts 331°
2026-04-21 03:43 52.76962 -1.37699 20009 ft 394 kts 330°
2026-04-21 03:43 52.79268 -1.40060 19233 ft 392 kts 330°
2026-04-21 03:43 52.81580 -1.42437 18449 ft 390 kts 330°
2026-04-21 03:43 52.83868 -1.44789 17668 ft 388 kts 330°
2026-04-21 03:44 52.86135 -1.47118 16890 ft 386 kts 330°
2026-04-21 03:44 52.88399 -1.49447 16111 ft 383 kts 330°
2026-04-21 03:44 52.90640 -1.51752 15353 ft 381 kts 330°
2026-04-21 03:44 52.92879 -1.54056 14590 ft 379 kts 330°
2026-04-21 03:45 52.95095 -1.56340 13820 ft 376 kts 330°
2026-04-21 03:45 52.97297 -1.58612 13051 ft 373 kts 330°
2026-04-21 03:45 52.99473 -1.60860 12294 ft 371 kts 330°
2026-04-21 03:45 53.01643 -1.63104 11529 ft 368 kts 330°
2026-04-21 03:46 53.03802 -1.65342 10767 ft 365 kts 329°
2026-04-21 03:46 53.05793 -1.67878 9983 ft 365 kts 319°
2026-04-21 03:46 53.07534 -1.70914 9208 ft 364 kts 313°
2026-04-21 03:46 53.09169 -1.74105 8568 ft 358 kts 312°
2026-04-21 03:47 53.10731 -1.77212 8355 ft 340 kts 313°
2026-04-21 03:47 53.12209 -1.80135 8333 ft 319 kts 313°
2026-04-21 03:47 53.13591 -1.82851 8334 ft 301 kts 313°
2026-04-21 03:47 53.14905 -1.85421 8332 ft 287 kts 313°
2026-04-21 03:48 53.16182 -1.87908 8333 ft 283 kts 314°
2026-04-21 03:48 53.17475 -1.90425 8329 ft 285 kts 314°
2026-04-21 03:48 53.18765 -1.92939 8330 ft 286 kts 314°
2026-04-21 03:48 53.20046 -1.95442 8327 ft 285 kts 314°
2026-04-21 03:49 53.21345 -1.97980 8323 ft 286 kts 313°
2026-04-21 03:49 53.22623 -2.00480 8320 ft 286 kts 314°
2026-04-21 03:49 53.23918 -2.03016 8328 ft 287 kts 314°
2026-04-21 03:49 53.25214 -2.05553 8332 ft 288 kts 314°
2026-04-21 03:50 53.26511 -2.08084 8335 ft 286 kts 314°
2026-04-21 03:50 53.27651 -2.10801 8326 ft 291 kts 296°
2026-04-21 03:50 53.28106 -2.14096 8058 ft 300 kts 271°
2026-04-21 03:50 53.27687 -2.17508 7544 ft 302 kts 244°
2026-04-21 03:51 53.26573 -2.20436 7044 ft 302 kts 232°
2026-04-21 03:51 53.25309 -2.23210 6528 ft 303 kts 231°
2026-04-21 03:51 53.24036 -2.25997 6012 ft 304 kts 231°
2026-04-21 03:51 53.22773 -2.28782 5501 ft 304 kts 231°
2026-04-21 03:52 53.21504 -2.31592 4982 ft 305 kts 231°
2026-04-21 03:52 53.20223 -2.34447 4456 ft 305 kts 231°
2026-04-21 03:52 53.18979 -2.37239 3947 ft 305 kts 231°
2026-04-21 03:52 53.17721 -2.40075 3438 ft 305 kts 231°
2026-04-21 03:53 53.16464 -2.42921 3037 ft 300 kts 231°
2026-04-21 03:53 53.15266 -2.45636 2973 ft 280 kts 231°
2026-04-21 03:53 53.14175 -2.48129 2987 ft 258 kts 231°
2026-04-21 03:53 53.13337 -2.50614 2969 ft 242 kts 257°
2026-04-21 03:54 53.13397 -2.53295 3010 ft 232 kts 292°
2026-04-21 03:54 53.14017 -2.55779 3018 ft 234 kts 301°
2026-04-21 03:54 53.14966 -2.57952 2992 ft 228 kts 327°
2026-04-21 03:54 53.16333 -2.59083 2989 ft 216 kts 350°
2026-04-21 03:55 53.17788 -2.59584 2986 ft 211 kts
2026-04-21 03:55 53.19186 -2.59199 2992 ft 201 kts 27°
2026-04-21 03:55 53.20392 -2.58139 2988 ft 193 kts 40°
2026-04-21 03:55 53.21319 -2.56629 2990 ft 181 kts 59°
2026-04-21 03:56 53.22041 -2.54903 2993 ft 180 kts 56°
2026-04-21 03:56 53.22807 -2.53313 2990 ft 172 kts 55°
2026-04-21 03:56 53.23547 -2.51779 2993 ft 171 kts 55°
2026-04-21 03:56 53.24282 -2.50273 2990 ft 164 kts 55°
2026-04-21 03:57 53.24994 -2.48818 3000 ft 160 kts 55°
2026-04-21 03:57 53.25681 -2.47413 3000 ft 152 kts 55°
2026-04-21 03:57 53.26341 -2.46058 2957 ft 153 kts 55°
2026-04-21 03:57 53.27017 -2.44675 2748 ft 151 kts 55°
2026-04-21 03:58 53.27660 -2.43360 2539 ft 141 kts 56°
2026-04-21 03:58 53.28262 -2.42124 2346 ft 136 kts 56°
2026-04-21 03:58 53.28840 -2.40943 2190 ft 128 kts 56°
2026-04-21 03:58 53.29403 -2.39778 1975 ft 128 kts 56°
2026-04-21 03:59 53.29951 -2.38656 1792 ft 123 kts 56°
2026-04-21 03:59 53.30494 -2.37542 1623 ft 126 kts 56°
2026-04-21 03:59 53.31052 -2.36389 1431 ft 128 kts 55°
2026-04-21 04:00 53.32207 -2.34068 1086 ft 131 kts 52°
2026-04-21 04:00 53.32789 -2.32892 891 ft 133 kts 54°
2026-04-21 04:00 53.33354 -2.31648 701 ft 136 kts 53°
2026-04-21 04:00 53.33957 -2.30408 508 ft 138 kts 51°
2026-04-21 04:01 53.34556 -2.29180 325 ft 140 kts 52°
2026-04-21 04:01 53.35155 -2.27949 236 ft 116 kts 51°
2026-04-21 04:01 53.35502 -2.27233 253 ft 48 kts 53°
2026-04-21 04:01 53.35693 -2.26830 266 ft 35 kts 51°
2026-04-21 04:02 53.35798 -2.26671 269 ft 16 kts 352°
2026-04-21 04:02 53.35861 -2.26727 269 ft 2 kts 356°
2026-04-21 04:02 53.35890 -2.26730 269 ft 8 kts 356°
2026-04-21 04:02 53.35920 -2.26788 269 ft 6 kts 265°
2026-04-21 04:03 53.35893 -2.26851 269 ft 8 kts 229°
2026-04-21 04:03 53.35840 -2.26970 266 ft 17 kts 235°
2026-04-21 04:03 53.35796 -2.27148 259 ft 14 kts 291°
2026-04-21 04:03 53.35874 -2.27221 257 ft 10 kts 343°
2026-04-21 04:04 53.35934 -2.27238 258 ft 7 kts 355°
2026-04-21 04:04 53.35978 -2.27241 259 ft 4 kts
2026-04-21 04:04 53.35989 -2.27227 259 ft 0 kts 54°
2026-04-21 04:04 53.35996 -2.27198 261 ft 2 kts 80°
2026-04-21 04:05 53.35996 -2.27180 261 ft 0 kts 92°
2026-04-21 04:05 53.35996 -2.27160 262 ft 4 kts 86°
2026-04-21 04:05 53.35998 -2.27132 263 ft 0 kts 86°